Flag for U.S.A. Weather past 2 weeks in Howell, Michigan, U.S.A.

Now
15 °F

Mostly cloudy.


Feels Like: 9 °F
Forecast: 8 / 23 °F
Wind: 3 mph from North

Location: Livingston County Airport

Current Time: Jan 27, 2015 at 9:55:25 AM

Latest Report: Jan 27, 2015 at 9:35 AM


Visibility: 10 mi

Pressure: 30.08 "Hg

Humidity: 87%

Dew point: 12 °F

Location of HowellLocation

Historic Weather in Howell — Graph

°F

Howell temperature yesterday

Maximum temperature yesterday: 24 °F (at 3:55 PM)
Minimum temperature yesterday: 8 °F (at 7:34 AM)
Average temperature yesterday: 15 °F

Past Weeks' High & Low Weather Summary

 TemperatureHumidityPressure
High42 °F (Jan 17, 3:35 PM)99% (Jan 18, 9:55 AM)30.71 "Hg (Jan 18, 9:55 AM)
Low-8 °F (Jan 14, 3:55 AM)29% (Jan 13, 4:54 PM)29.53 "Hg (Jan 24, 2:55 PM)
Average22 °F80%30.04 "Hg
* Reported Jan 12 8:15 AM — Jan 27 8:34 AM, Howell, Weather by CustomWeather, © 2014

Note: Actual official high and low records may vary slightly from our data, if they occured in-between our weather recording intervals... More about our weather records

Advertising

Howell weather history for previous 24 hours

 ConditionsComfort  
Time TempWeatherWind HumidityBarometerVisibility
8:34 AM
Jan 27
11 °FSunny.No wind91%30.07 "Hg7 mi
8:15 AM9 °FSunny.No wind92%30.06 "Hg7 mi
7:55 AM9 °FSunny.No wind91%30.06 "Hg7 mi
7:35 AM9 °FClear.No wind91%30.05 "Hg7 mi
7:15 AM9 °FClear.No wind92%30.05 "Hg7 mi
6:55 AM9 °FClear.3 mph91%30.03 "Hg7 mi
6:35 AM9 °FPassing clouds.No wind92%30.02 "Hg7 mi
6:15 AM8 °FPassing clouds.No wind93%30.01 "Hg7 mi
5:55 AM9 °FClear.No wind92%30.00 "Hg7 mi
5:35 AM9 °FClear.3 mph93%30.00 "Hg7 mi
5:15 AM9 °FClear.No wind92%30.00 "Hg7 mi
4:55 AM9 °FClear.3 mph93%29.99 "Hg10 mi
4:35 AM9 °FClear.3 mph92%29.99 "Hg10 mi
4:15 AM9 °FClear.3 mph93%29.98 "Hg10 mi
3:54 AM9 °FClear.3 mph93%29.98 "Hg10 mi
3:35 AM9 °FClear.No wind93%29.98 "Hg10 mi
3:15 AM10 °FClear.3 mph92%29.98 "Hg10 mi
2:54 AM10 °FClear.3 mph93%29.98 "Hg10 mi
2:35 AM8 °FClear.No wind92%29.96 "Hg10 mi
2:15 AM9 °FClear.No wind93%29.96 "Hg10 mi
1:54 AM8 °FClear.No wind91%29.95 "Hg7 mi
1:35 AM10 °FClear.No wind92%29.95 "Hg10 mi
1:15 AM10 °FClear.No wind92%29.96 "Hg10 mi
12:54 AM11 °FClear.No wind90%29.96 "Hg10 mi
12:35 AM11 °FClear.No wind90%29.96 "Hg10 mi
12:15 AM12 °FClear.No wind89%29.96 "Hg10 mi
11:54 PM
Jan 26
13 °FClear.No wind88%29.96 "Hg10 mi
11:35 PM13 °FClear.3 mph87%29.95 "Hg10 mi
11:15 PM13 °FClear.No wind87%29.95 "Hg10 mi
10:54 PM14 °FClear.3 mph84%29.95 "Hg10 mi
10:35 PM14 °FClear.3 mph84%29.95 "Hg10 mi
9:55 PM15 °FClear.5 mph78%29.95 "Hg10 mi
9:35 PM16 °FPassing clouds.6 mph75%29.95 "Hg10 mi
9:15 PM16 °FPassing clouds.5 mph71%29.96 "Hg10 mi
8:55 PM17 °FOvercast.5 mph68%29.95 "Hg10 mi
8:35 PM17 °FPassing clouds.5 mph66%29.94 "Hg10 mi
8:15 PM18 °FPassing clouds.3 mph65%29.94 "Hg10 mi
7:55 PM18 °FPassing clouds.3 mph65%29.93 "Hg10 mi
7:35 PM19 °FClear.No wind62%29.92 "Hg10 mi
7:14 PM19 °FClear.No wind61%29.92 "Hg10 mi
6:55 PM19 °FClear.No wind59%29.91 "Hg10 mi
6:35 PM20 °FClear.No wind57%29.91 "Hg10 mi
6:14 PM20 °FClear.No wind57%29.90 "Hg10 mi
5:55 PM21 °FClear.No wind57%29.91 "Hg10 mi
5:35 PM22 °FSunny.3 mph55%29.90 "Hg10 mi
5:14 PM22 °FSunny.6 mph54%29.89 "Hg10 mi
4:55 PM23 °FSunny.5 mph52%29.89 "Hg10 mi
4:35 PM23 °FSunny.5 mph46%29.88 "Hg10 mi
4:14 PM24 °FScattered clouds.No wind45%29.88 "Hg10 mi
3:55 PM24 °FSunny.3 mph46%29.88 "Hg10 mi
3:35 PM24 °FSunny.6 mph49%29.88 "Hg10 mi
3:14 PM23 °FSunny.5 mph46%29.88 "Hg10 mi
2:55 PM23 °FSunny.5 mph47%29.88 "Hg10 mi
2:35 PM23 °FSunny.5 mph49%29.87 "Hg10 mi
2:14 PM23 °FSunny.5 mph50%29.87 "Hg10 mi
1:55 PM22 °FSunny.3 mph52%29.88 "Hg10 mi
1:35 PM22 °FSunny.5 mph54%29.88 "Hg10 mi
1:14 PM22 °FSunny.5 mph58%29.89 "Hg10 mi
12:55 PM21 °FSunny.5 mph61%29.90 "Hg10 mi
12:35 PM20 °FSunny.5 mph65%29.91 "Hg10 mi
12:14 PM19 °FSunny.3 mph68%29.91 "Hg10 mi
11:55 AM18 °FSunny.3 mph71%29.92 "Hg10 mi
11:35 AM17 °FSunny.5 mph74%29.93 "Hg10 mi
11:15 AM16 °FSunny.5 mph76%29.94 "Hg10 mi
10:55 AM15 °FSunny.7 mph80%29.94 "Hg10 mi
10:34 AM15 °FSunny.8 mph82%29.93 "Hg10 mi
10:15 AM13 °FSunny.6 mph85%29.94 "Hg10 mi
9:55 AM12 °FSunny.3 mph88%29.94 "Hg10 mi
9:34 AM11 °FSunny.5 mph90%29.94 "Hg10 mi
9:15 AM10 °FSunny.5 mph91%29.94 "Hg10 mi
Weather by CustomWeather, © 2014

See weather overviewHow to use our weather pages